• In Italy
  • List of Countries
  • For 7 days
  • Water Temperature
  • Satellite Maps
  • Weather Map
  • Weather Widgets
  • user-avatar
    Login

    Hourly Weather Gyor

    Today, 19 February, Monday

    Time Temperature Precipitation Wind Pressure Humidity
    00:00 -1°C° 0 mm 1 mps 760 mmHg 85%
    01:00 -1°C° 0 mm 1 mps 759 mmHg 84%
    02:00 -1°C° 0 mm 1 mps 759 mmHg 84%
    03:00 -1°C° 0 mm 1 mps 759 mmHg 84%
    04:00 -1°C° 0 mm 1 mps 759 mmHg 85%
    05:00 -1°C° 0 mm 1 mps 759 mmHg 85%
    06:00 -1°C° 0 mm 1 mps 758 mmHg 85%
    07:00 -1°C° 0 mm 1 mps 758 mmHg 85%
    08:00 0°C° 0 mm 1 mps 758 mmHg 78%
    09:00 +1°C° 0 mm 1 mps 758 mmHg 72%
    10:00 +1°C° 0 mm 2 mps 757 mmHg 66%
    11:00 +2°C° 0 mm 2 mps 757 mmHg 63%
    12:00 +3°C° 0 mm 2 mps 756 mmHg 60%
    13:00 +3°C° 0 mm 2 mps 756 mmHg 57%
    14:00 +3°C° 0 mm 2 mps 755 mmHg 59%
    15:00 +3°C° 0 mm 2 mps 755 mmHg 61%
    16:00 +3°C° 0 mm 2 mps 755 mmHg 63%
    17:00 +2°C° 0 mm 2 mps 754 mmHg 67%
    18:00 +1°C° 0 mm 2 mps 754 mmHg 71%
    19:00 -1°C° 0 mm 2 mps 754 mmHg 74%
    20:00 -1°C° 0 mm 2 mps 754 mmHg 75%
    21:00 -1°C° 0 mm 2 mps 754 mmHg 75%
    22:00 -1°C° 0 mm 2 mps 754 mmHg 76%
    23:00 -1°C° 0.1 mm 2 mps 754 mmHg 77%

    Tomorrow, 20 February, Tuesday

    Time Temperature Precipitation Wind Pressure Humidity
    00:00 -1°C° 0.1 mm 2 mps 753 mmHg 79%
    01:00 -1°C° 0.1 mm 3 mps 753 mmHg 80%
    02:00 -1°C° 0.4 mm 3 mps 753 mmHg 83%
    03:00 -1°C° 0.4 mm 3 mps 752 mmHg 86%
    04:00 -1°C° 0.4 mm 3 mps 752 mmHg 88%
    05:00 -1°C° 0.4 mm 3 mps 752 mmHg 87%
    06:00 -1°C° 0.4 mm 3 mps 752 mmHg 86%
    07:00 -1°C° 0.4 mm 3 mps 751 mmHg 84%
    08:00 -1°C° 0.4 mm 3 mps 751 mmHg 85%
    09:00 -1°C° 0.4 mm 3 mps 751 mmHg 86%
    10:00 0°C° 0.4 mm 3 mps 751 mmHg 86%
    11:00 0°C° 0.6 mm 3 mps 751 mmHg 87%
    12:00 0°C° 0.6 mm 3 mps 751 mmHg 89%
    13:00 0°C° 0.6 mm 3 mps 751 mmHg 90%
    14:00 0°C° 0.8 mm 3 mps 750 mmHg 90%
    15:00 0°C° 0.8 mm 3 mps 750 mmHg 91%
    16:00 0°C° 0.8 mm 3 mps 750 mmHg 91%
    17:00 0°C° 0.6 mm 3 mps 750 mmHg 91%
    18:00 0°C° 0.6 mm 3 mps 750 mmHg 92%
    19:00 0°C° 0.6 mm 3 mps 750 mmHg 92%
    20:00 0°C° 0.3 mm 3 mps 750 mmHg 92%
    21:00 0°C° 0.3 mm 3 mps 750 mmHg 92%
    22:00 0°C° 0.3 mm 3 mps 751 mmHg 92%
    23:00 0°C° 0.3 mm 3 mps 751 mmHg 92%

    Day after tomorrow, 21 February, Wednesday

    Time Temperature Precipitation Wind Pressure Humidity
    00:00 0°C° 0.3 mm 3 mps 751 mmHg 92%
    01:00 0°C° 0.3 mm 3 mps 751 mmHg 92%
    02:00 0°C° 0.2 mm 3 mps 751 mmHg 92%
    03:00 0°C° 0.2 mm 3 mps 751 mmHg 93%
    04:00 0°C° 0.2 mm 3 mps 751 mmHg 93%
    05:00 0°C° 0.1 mm 3 mps 751 mmHg 94%
    06:00 0°C° 0.1 mm 3 mps 751 mmHg 94%
    07:00 -1°C° 0.1 mm 3 mps 751 mmHg 94%
    08:00 0°C° 0.2 mm 3 mps 752 mmHg 95%
    09:00 0°C° 0.2 mm 3 mps 752 mmHg 96%
    10:00 0°C° 0.2 mm 3 mps 752 mmHg 97%
    11:00 0°C° 0.1 mm 3 mps 752 mmHg 97%
    12:00 +1°C° 0.1 mm 3 mps 752 mmHg 97%
    13:00 +1°C° 0.1 mm 3 mps 752 mmHg 97%
    14:00 +1°C° 0.1 mm 3 mps 751 mmHg 96%
    15:00 +1°C° 0.1 mm 3 mps 751 mmHg 96%
    16:00 +1°C° 0.1 mm 3 mps 751 mmHg 96%
    17:00 +1°C° 0.1 mm 3 mps 751 mmHg 94%
    18:00 +1°C° 0.1 mm 3 mps 751 mmHg 92%
    19:00 0°C° 0.1 mm 3 mps 751 mmHg 91%
    20:00 0°C° 0.3 mm 3 mps 751 mmHg 91%
    21:00 0°C° 0.3 mm 3 mps 751 mmHg 91%
    22:00 0°C° 0.3 mm 3 mps 751 mmHg 91%
    23:00 0°C° 0.4 mm 3 mps 751 mmHg 92%

    22 February, Thursday

    Time Temperature Precipitation Wind Pressure Humidity
    00:00 0°C° 0.4 mm 3 mps 751 mmHg 92%
    01:00 0°C° 0.4 mm 3 mps 751 mmHg 92%
    02:00 -1°C° 0.2 mm 3 mps 751 mmHg 92%
    03:00 -1°C° 0.2 mm 3 mps 751 mmHg 91%
    04:00 -1°C° 0.2 mm 3 mps 751 mmHg 91%
    05:00 -1°C° 0.1 mm 3 mps 750 mmHg 91%
    06:00 -2°C° 0.1 mm 3 mps 750 mmHg 90%
    07:00 -2°C° 0.1 mm 3 mps 750 mmHg 90%
    08:00 -1°C° 0.2 mm 3 mps 750 mmHg 89%
    09:00 -2°C° 0.2 mm 4 mps 750 mmHg 88%
    10:00 -1°C° 0.2 mm 4 mps 751 mmHg 87%
    11:00 -1°C° 0.1 mm 4 mps 750 mmHg 88%
    12:00 0°C° 0.1 mm 4 mps 750 mmHg 88%
    13:00 0°C° 0.1 mm 4 mps 750 mmHg 89%
    14:00 0°C° 0.3 mm 4 mps 750 mmHg 89%
    15:00 +2°C° 0.3 mm 3 mps 750 mmHg 89%
    16:00 +2°C° 0.3 mm 3 mps 750 mmHg 89%
    17:00 +1°C° 0.6 mm 3 mps 750 mmHg 89%
    18:00 +1°C° 0.6 mm 3 mps 750 mmHg 88%
    19:00 +1°C° 0.6 mm 3 mps 750 mmHg 88%
    20:00 +1°C° 0.2 mm 3 mps 751 mmHg 88%
    21:00 0°C° 0.2 mm 3 mps 751 mmHg 88%
    22:00 0°C° 0.2 mm 3 mps 751 mmHg 88%
    23:00 0°C° 0.1 mm 3 mps 751 mmHg 88%

    23 February, Friday

    Time Temperature Precipitation Wind Pressure Humidity
    00:00 0°C° 0.1 mm 3 mps 751 mmHg 88%
    01:00 0°C° 0.1 mm 3 mps 750 mmHg 89%
    02:00 -1°C° 0.1 mm 3 mps 750 mmHg 89%
    03:00 -1°C° 0.1 mm 3 mps 750 mmHg 89%
    04:00 -1°C° 0.1 mm 3 mps 750 mmHg 89%
    05:00 -1°C° 0.2 mm 3 mps 750 mmHg 89%
    06:00 -1°C° 0.2 mm 3 mps 750 mmHg 89%
    07:00 -1°C° 0.2 mm 3 mps 750 mmHg 90%
    08:00 -1°C° 0.2 mm 3 mps 750 mmHg 89%
    09:00 -2°C° 0.2 mm 4 mps 751 mmHg 88%
    10:00 -1°C° 0.2 mm 4 mps 751 mmHg 88%
    11:00 -1°C° 0.2 mm 4 mps 751 mmHg 87%
    12:00 0°C° 0.2 mm 4 mps 751 mmHg 87%
    13:00 0°C° 0.2 mm 4 mps 751 mmHg 87%
    14:00 +1°C° 0.1 mm 3 mps 751 mmHg 86%
    15:00 +1°C° 0.1 mm 3 mps 751 mmHg 86%
    16:00 +1°C° 0.1 mm 3 mps 751 mmHg 85%
    17:00 +1°C° 0 mm 3 mps 751 mmHg 84%
    18:00 -1°C° 0 mm 4 mps 752 mmHg 82%
    19:00 -1°C° 0 mm 4 mps 752 mmHg 80%
    20:00 -2°C° 0 mm 4 mps 753 mmHg 80%
    21:00 -4°C° 0 mm 5 mps 753 mmHg 79%
    22:00 -4°C° 0 mm 5 mps 753 mmHg 78%
    23:00 -5°C° 0 mm 5 mps 754 mmHg 77%

    24 February, Saturday

    Time Temperature Precipitation Wind Pressure Humidity
    00:00 -6°C° 0 mm 5 mps 754 mmHg 75%
    01:00 -7°C° 0 mm 5 mps 754 mmHg 74%
    02:00 -7°C° 0 mm 5 mps 754 mmHg 71%
    03:00 -8°C° 0 mm 5 mps 755 mmHg 69%
    04:00 -9°C° 0 mm 6 mps 755 mmHg 66%
    05:00 -10°C° 0 mm 6 mps 756 mmHg 65%
    06:00 -10°C° 0 mm 6 mps 756 mmHg 64%
    07:00 -10°C° 0 mm 6 mps 757 mmHg 63%
    08:00 -10°C° 0 mm 6 mps 757 mmHg 61%
    09:00 -9°C° 0 mm 7 mps 758 mmHg 58%
    10:00 -8°C° 0 mm 7 mps 758 mmHg 56%
    11:00 -8°C° 0 mm 7 mps 758 mmHg 54%
    12:00 -7°C° 0 mm 7 mps 758 mmHg 53%
    13:00 -7°C° 0 mm 7 mps 758 mmHg 51%
    14:00 -7°C° 0 mm 7 mps 758 mmHg 52%
    15:00 -6°C° 0 mm 6 mps 758 mmHg 53%
    16:00 -6°C° 0 mm 6 mps 757 mmHg 54%
    17:00 -7°C° 0 mm 5 mps 758 mmHg 56%
    18:00 -8°C° 0 mm 4 mps 758 mmHg 58%
    19:00 -9°C° 0 mm 4 mps 758 mmHg 60%
    20:00 -8°C° 0 mm 3 mps 758 mmHg 61%
    21:00 -8°C° 0 mm 3 mps 758 mmHg 62%
    22:00 -7°C° 0 mm 2 mps 758 mmHg 63%
    23:00 -8°C° 0 mm 2 mps 758 mmHg 64%
    Show more